This is the latest recevied weather packets stored in our database for station/object OE3XOC-11. If no packets are shown the sender has not sent any weather packets the latest 1 day(s).
| Time | Temp. | Humidity | Pressure | Rain* | Wind** | Luminosity | Snow |
|---|---|---|---|---|---|---|---|
| 1778031106 | 16.11° C | 71% | 953.2 hPa | - | - | - | - |
| 1778030806 | 16.67° C | 70% | 953.3 hPa | - | - | - | - |
| 1778030506 | 17.22° C | 69% | 953.3 hPa | - | - | - | - |
| 1778030206 | 16.67° C | 71% | 953.2 hPa | - | - | - | - |
| 1778029906 | 17.22° C | 69% | 953.3 hPa | - | - | - | - |
| 1778029606 | 16.67° C | 71% | 953.2 hPa | - | - | - | - |
| 1778029306 | 16.67° C | 70% | 953.1 hPa | - | - | - | - |
| 1778028706 | 16.67° C | 69% | 953.1 hPa | - | - | - | - |
| 1778028406 | 17.22° C | 68% | 953.1 hPa | - | - | - | - |
| 1778028106 | 17.22° C | 67% | 953 hPa | - | - | - | - |
| 1778027806 | 17.22° C | 67% | 953 hPa | - | - | - | - |
| 1778027506 | 17.22° C | 67% | 953.1 hPa | - | - | - | - |
| 1778027206 | 17.22° C | 66% | 953 hPa | - | - | - | - |
| 1778026906 | 17.22° C | 65% | 953 hPa | - | - | - | - |
| 1778026606 | 17.78° C | 64% | 953 hPa | - | - | - | - |
| 1778026306 | 17.78° C | 63% | 952.9 hPa | - | - | - | - |
| 1778026006 | 17.78° C | 63% | 952.9 hPa | - | - | - | - |
| 1778025106 | 18.33° C | 60% | 952.6 hPa | - | - | - | - |
| 1778023906 | 18.33° C | 59% | 952.4 hPa | - | - | - | - |
| 1778022406 | 18.89° C | 55% | 952.4 hPa | - | - | - | - |
| 1778022106 | 18.89° C | 54% | 952.3 hPa | - | - | - | - |
| 1778021506 | 18.89° C | 54% | 952.1 hPa | - | - | - | - |
| 1778020906 | 18.89° C | 53% | 951.9 hPa | - | - | - | - |
| 1778020006 | 19.44° C | 52% | 951.5 hPa | - | - | - | - |
| 1778019406 | 19.44° C | 52% | 951.5 hPa | - | - | - | - |
* Rain since midnight (hover to see other rain measurements)
** Current wind speed in m/s (hover to see current wind gust speed)